Location: Pebble Beach Sunset Acres
(33.0837°N, 96.4508°W)
Time: 06:17:56
(UTC+00:00)

DELTA 2 R/B (1) - Pass Details

Date: 30 June 2022
Orbit: 790 x 803 km, 39.6° (Epoch: 15 August)

Event Time Altitude Azimuth Distance (km) Brightness Sun altitude
Rises 03:50:20 0° 293° (WNW) 3,297 7.8 -22.2°
Reaches altitude 10° 03:52:50 10° 290° (WNW) 2,367 6.8 -22.5°
Maximum altitude 03:58:22 67° 209° (SSW) 862 3.6 -23.2°
Enters shadow 03:59:16 57° 161° (SSE) 932 3.5 -23.3°
